sat.trackr.live / text

‹ back to catalog

STARLINK-31355

NORAD 58978 · 2024-031P

PAYLOAD ACTIVE UNKNOWN

§ Identity

Operator
Country
US
Launch date
2024-02-15
Launch site
AFWTR
Launch vehicle
Mass (kg)
RCS (m²)

Purposes: comms

External: N2YO · Heavens-Above · Gunter

§ Orbital elements

Epoch: 2026-09-20T22:00:47.385504Z

Period
93.85 min
Inclination
53.1579°
Eccentricity
0.0001820
Mean motion
15.34388337 rev/d
Perigee alt
461.5 km
Apogee alt
464.0 km
Semi-major
6,840.9 km
B*
2.5736e-4
RAAN
107.7377°
Arg perigee
68.3609°
Mean anomaly
291.7588°
Rev number
14,643

§ Raw data

STARLINK-313551 58978U 24031P   26263.91721511  .00008325  00000+0  25736-3 0  99962 58978  53.1579 107.7377 0001820  68.3609 291.7588 15.34388337146437

JSON: /api/v1/satellites/58978 · /tle

For live sub-satellite position, see the globe view (requires WebGL).

§ Visibility from observer

Set your observer location to see the next 7 days of passes ≥ 10°. The values pass through the URL so the page stays shareable.

No JS? Fill the form by hand. The geolocation button needs JavaScript.